GFSWCAN_850_temp_159.txt.gz
Temp
9 8 8 7 7 6 6 6 6 6 6 5 5 5 4 3 3 4 5 5 5 5 6 8 8 7 8 9 7 10 10 11 9 10 11 10 11 12 13 13 15 13 12 12 11 14 15 15 17 19 14 16 18 19
8 8 8 7 6 6 5 5 5 6 5 5 4 4 4 4 3 3 4 4 4 4 7 8 9 9 8 8 8 9 9 9 11 9 9 9 11 10 10 11 12 13 11 11 11 12 13 15 15 15 14 14 16 18
8 8 7 6 6 6 5 5 5 5 5 4 4 4 3 3 3 2 3 4 4 4 6 7 10 10 10 10 9 8 10 11 13 13 10 8 10 9 10 10 13 12 11 10 12 14 13 15 16 15 15 15 16 18
8 7 6 6 5 5 5 5 5 4 4 4 3 3 3 3 2 2 3 3 3 4 4 7 9 11 11 11 11 12 13 12 12 12 12 9 9 11 9 10 10 11 10 11 10 11 14 15 15 15 15 16 16 17
8 6 5 5 5 5 5 5 4 4 3 3 3 2 2 2 2 3 4 4 4 4 4 6 8 11 12 12 13 13 12 11 10 10 8 10 10 10 9 9 10 12 10 10 10 14 13 15 16 16 15 15 15 16
6 5 5 4 5 5 4 4 4 3 3 3 2 2 2 2 2 4 5 5 5 4 5 4 8 11 12 13 13 12 13 12 10 11 11 12 13 12 9 8 12 15 15 14 13 15 14 15 15 16 15 14 15 16
5 5 4 4 4 4 4 4 4 3 3 3 2 2 2 2 3 4 5 5 5 5 5 5 5 10 12 12 13 13 13 12 12 12 11 12 13 11 9 11 12 14 14 14 15 13 13 15 15 16 14 13 14 16
5 4 4 4 4 4 4 4 4 3 3 3 3 3 3 4 5 6 6 5 5 5 5 5 4 7 11 12 11 12 12 12 12 12 10 9 10 10 8 10 13 13 13 13 14 14 14 15 15 15 14 13 15 16
5 5 4 4 4 4 4 3 3 3 3 3 3 4 5 5 6 6 6 6 6 5 5 6 5 6 11 11 11 11 10 7 10 7 7 9 8 8 9 11 13 14 13 14 14 14 14 14 14 14 14 14 14 16
4 4 4 4 4 3 3 3 3 3 3 4 4 4 5 5 6 5 5 5 5 5 5 5 6 5 9 9 9 8 8 7 8 8 10 7 8 12 14 13 13 13 13 13 13 13 14 13 14 14 14 14 14 15
4 4 4 4 3 3 3 3 3 3 3 4 4 5 6 6 5 6 6 6 6 6 5 6 6 7 10 8 9 9 7 6 10 9 10 10 9 10 12 12 13 12 12 13 13 13 14 14 14 14 14 14 15 15
4 4 4 4 3 3 3 3 3 3 3 4 4 5 6 6 6 6 7 7 7 8 8 7 9 9 10 10 8 8 9 7 9 9 10 11 11 12 12 12 12 12 12 12 13 14 14 14 15 14 14 14 14 14
4 4 4 4 3 3 3 3 3 3 4 4 4 5 5 6 5 7 8 8 7 8 9 10 8 10 10 10 9 8 9 9 10 9 9 10 10 11 11 12 12 12 12 12 13 14 15 14 14 14 14 15 14 14
4 4 4 4 3 3 3 3 3 4 4 4 5 4 6 6 8 9 9 9 11 10 11 10 9 9 10 9 9 10 10 10 8 9 10 9 10 10 11 12 12 12 12 12 13 14 15 13 13 14 13 14 15 15
4 4 4 4 4 3 3 3 3 4 4 4 5 5 5 8 9 10 11 10 11 11 10 9 8 8 8 9 9 10 10 9 9 10 10 9 10 10 11 12 12 12 12 13 13 13 14 13 13 13 12 12 14 15
3 3 4 4 3 3 4 3 4 4 4 4 4 4 7 7 8 10 10 10 11 11 10 9 7 8 9 9 10 10 8 9 10 10 10 11 11 11 12 12 12 12 13 13 13 13 13 13 13 13 12 12 13 13
3 3 3 3 3 4 4 3 4 4 4 4 5 7 7 7 8 9 10 11 11 11 9 8 8 9 8 8 8 9 10 10 12 11 13 12 12 12 12 12 12 12 12 12 13 14 14 15 13 13 13 12 12 13
3 3 4 3 4 3 4 4 4 4 5 6 5 8 8 9 9 10 11 11 11 11 10 10 10 9 10 10 9 9 11 12 12 12 13 13 13 13 13 11 12 12 12 12 13 14 16 16 14 14 15 14 14 15
3 4 3 3 4 4 4 4 4 4 6 7 8 8 9 9 10 11 11 11 12 11 11 11 10 9 9 9 9 11 12 11 10 13 13 13 13 14 14 13 12 12 12 12 12 15 15 15 14 14 13 14 14 16
3 3 3 4 4 4 5 5 5 5 6 8 8 9 10 10 11 11 11 11 11 11 10 9 9 11 12 13 13 13 12 12 12 12 13 13 13 13 13 13 13 13 12 12 12 13 14 15 14 14 14 15 15 16
3 3 3 3 3 4 4 5 6 7 7 8 9 9 10 10 10 11 11 12 11 10 9 12 12 13 13 13 13 13 13 13 13 12 12 12 12 12 13 13 12 13 13 12 12 13 14 14 14 14 14 14 14 15
3 3 3 3 3 4 4 5 6 7 7 8 8 9 9 8 9 10 11 10 11 12 12 12 13 13 13 13 13 13 13 13 13 12 12 12 12 12 12 12 13 12 12 13 13 14 14 13 13 14 15 15 15 15
3 3 4 4 4 4 6 6 6 8 7 8 9 9 9 10 10 10 10 10 10 10 11 11 11 12 12 12 12 12 12 12 12 12 12 11 12 12 12 12 12 13 13 13 13 14 14 13 13 13 13 13 12 12
3 3 4 4 5 4 6 7 8 9 9 8 8 9 10 10 10 9 8 9 9 10 11 11 12 12 12 12 12 12 12 12 12 12 12 12 12 12 12 12 12 12 12 12 13 13 13 12 13 12 12 12 11 11
3 4 4 2 5 5 6 8 9 8 8 8 9 9 8 9 8 9 10 9 9 9 10 10 10 11 11 11 11 12 12 12 12 12 12 12 12 12 12 12 12 12 12 12 12 12 11 11 11 11 11 11 11 11
2 4 4 6 7 6 7 7 8 9 7 9 9 10 9 8 8 9 8 8 8 8 9 9 10 11 11 11 12 13 13 13 12 12 12 12 13 13 12 12 12 11 12 12 12 12 12 12 11 11 11 11 11 11
3 3 5 6 7 8 8 9 9 7 8 9 7 7 8 9 9 8 8 8 8 8 8 9 10 10 10 12 14 14 13 13 13 12 12 12 12 12 12 12 12 11 12 12 12 12 12 11 11 11 10 10 10 11
4 6 5 7 7 8 7 7 7 9 8 8 8 7 7 8 7 9 9 8 8 9 10 11 11 11 12 13 14 14 13 13 12 12 12 12 12 12 12 12 12 12 11 11 11 11 11 11 11 10 10 10 9 9
5 6 7 7 8 8 9 8 9 8 8 8 7 6 7 9 9 8 9 9 9 10 10 11 12 12 12 13 13 13 13 13 13 12 12 11 11 11 11 11 11 11 12 11 11 11 11 10 10 10 9 9 8 8
6 7 8 8 8 8 8 8 8 8 8 8 8 7 7 8 8 8 10 10 10 10 10 11 11 12 12 13 13 12 12 12 12 13 12 11 11 11 11 11 11 11 10 10 10 10 10 10 9 8 8 8 7 7
7 7 7 7 7 8 8 7 7 7 7 7 8 7 7 7 9 9 11 11 11 10 11 11 12 12 12 12 12 12 11 11 11 11 11 11 10 10 10 10 9 9 9 9 9 9 8 8 8 7 7 6 6 6
7 7 7 5 6 7 7 7 7 6 6 6 7 8 8 8 10 11 11 11 11 11 11 11 12 12 11 11 11 11 11 11 10 10 10 10 10 10 9 9 9 9 8 8 8 7 7 7 7 6 6 6 6 6
6 6 5 6 5 5 6 6 6 6 6 7 8 8 9 10 11 12 12 12 12 11 12 12 12 11 11 10 10 10 10 10 10 10 10 9 9 9 9 9 8 8 8 7 7 7 7 7 6 6 6 6 6 6

GFSWCAN_850_temp_162.txt.gz
Temp
9 9 8 8 7 7 6 6 6 5 5 5 5 4 4 4 4 4 4 4 4 4 5 7 7 7 8 8 7 9 9 9 8 9 9 9 9 11 12 13 12 12 11 11 10 12 14 14 16 17 14 14 14 15
9 9 8 8 7 6 6 6 5 5 5 5 5 4 4 4 3 3 4 3 3 3 6 8 8 7 7 8 8 8 8 8 9 8 7 7 9 9 9 11 11 11 11 11 11 11 12 14 14 15 14 13 14 13
9 9 8 7 6 5 5 5 5 5 4 4 4 3 3 3 3 2 3 3 3 3 5 6 9 9 8 9 9 7 8 10 11 11 9 7 9 8 9 9 12 11 10 10 11 13 13 15 14 14 14 15 15 15
8 8 8 6 5 5 5 5 5 4 4 3 3 3 3 2 2 2 2 2 2 3 3 7 8 9 9 9 9 9 10 10 10 10 10 7 8 10 8 9 9 10 10 10 9 10 14 16 15 15 15 15 15 15
8 7 6 5 5 4 5 5 4 4 4 3 3 2 2 2 2 2 3 4 3 3 3 5 8 9 9 10 10 10 9 8 8 9 8 7 9 8 7 7 8 10 9 10 11 12 13 14 15 15 15 15 16 15
7 6 5 5 5 4 4 4 4 4 4 3 3 3 2 2 2 3 5 5 5 4 4 5 7 11 11 11 11 12 12 9 8 9 9 11 13 11 9 6 11 14 14 14 13 14 13 14 14 15 15 15 15 15
6 5 5 4 4 4 4 4 4 4 4 3 3 2 2 2 3 4 4 5 4 4 5 5 4 9 11 11 11 11 11 10 9 10 10 11 12 11 8 10 12 13 13 14 14 14 12 14 14 15 15 15 15 14
5 4 4 4 4 4 4 4 4 4 4 3 3 3 3 4 5 5 5 5 5 5 5 5 4 7 10 10 11 11 11 10 10 10 9 8 9 9 7 10 13 13 13 12 13 13 13 14 14 14 14 14 14 14
4 4 4 4 4 4 4 4 4 3 3 3 4 4 5 5 6 5 6 5 5 5 5 5 5 4 10 10 10 10 9 7 8 6 6 8 6 7 9 11 12 13 13 13 13 13 13 13 14 14 14 14 14 14
4 4 4 4 4 4 4 3 3 3 3 4 4 5 5 5 6 5 5 5 5 5 4 4 6 5 8 8 8 8 7 6 7 7 8 6 6 11 13 13 13 12 11 11 11 12 13 13 14 14 14 14 14 14
4 4 4 4 4 4 3 3 3 3 3 3 4 4 5 5 5 5 6 5 5 6 5 5 6 6 8 7 8 8 6 5 9 8 9 10 10 10 11 11 12 11 11 11 12 12 12 12 13 13 14 14 13 14
4 4 4 4 4 3 3 3 3 3 3 4 4 5 6 5 5 6 7 6 6 8 7 6 8 8 9 8 7 8 8 7 9 9 9 11 10 10 10 10 11 11 11 11 12 12 13 13 14 14 14 13 13 13
4 4 4 4 3 3 3 3 3 3 4 4 4 4 4 5 5 7 8 7 7 8 9 9 7 10 9 8 8 7 9 9 9 9 9 8 9 10 9 9 11 12 11 12 12 12 12 14 15 14 14 13 13 13
4 4 4 3 3 3 3 3 3 4 4 4 4 4 5 5 6 8 8 9 10 10 10 9 8 8 9 9 9 9 10 9 8 7 8 9 8 8 9 10 10 11 12 12 12 12 13 13 14 13 13 13 13 13
4 3 3 3 3 3 3 3 3 4 5 4 4 5 4 7 8 9 9 10 11 10 9 9 7 7 7 8 8 9 9 8 8 8 8 9 9 9 10 11 11 11 12 12 12 12 12 12 13 13 13 13 13 13
3 3 3 3 3 3 3 3 3 4 4 4 3 3 6 5 7 8 10 10 11 10 9 8 8 8 9 8 9 9 8 9 9 9 10 9 11 11 11 11 11 12 12 12 12 12 12 13 13 14 13 14 14 12
3 2 3 3 3 3 3 3 3 4 3 3 3 5 5 6 6 8 9 10 10 10 8 8 9 9 8 8 8 8 9 10 9 9 10 9 10 11 11 12 11 12 12 12 12 12 13 13 13 13 13 12 12 12
3 2 3 3 3 3 3 4 4 4 3 5 4 7 7 7 8 9 10 10 10 11 10 10 9 9 9 9 10 9 11 11 11 10 12 12 10 11 12 11 11 11 11 12 12 13 14 13 12 12 11 11 12 12
3 3 3 3 3 3 3 4 4 4 5 6 6 7 7 8 9 10 10 11 10 11 10 10 9 9 9 9 9 11 11 11 10 11 12 12 11 11 12 12 12 11 11 12 13 13 13 13 12 12 13 13 14 14
3 3 3 4 3 4 4 5 5 5 5 7 7 8 8 9 10 11 11 11 11 10 9 8 8 10 11 12 12 12 12 12 11 11 12 12 11 12 12 12 12 12 12 11 11 13 13 14 13 13 14 14 15 15
3 3 3 3 3 3 4 5 5 6 6 6 8 8 9 9 9 9 10 10 9 9 8 11 12 12 12 12 12 12 12 12 11 11 11 11 11 11 12 12 12 12 12 12 12 12 13 14 13 13 13 14 14 14
2 3 3 3 3 3 3 4 5 6 6 7 7 8 8 8 8 9 9 9 9 11 10 11 11 11 11 12 12 12 12 11 11 12 11 11 12 12 12 12 12 12 12 12 12 12 12 12 12 13 13 13 14 14
3 3 3 3 3 3 5 5 5 6 6 8 8 8 8 9 9 9 8 9 9 9 9 10 11 11 11 11 11 11 11 12 12 12 11 12 11 11 11 12 12 12 12 11 11 11 11 11 11 11 11 12 12 12
3 3 3 4 4 4 5 6 6 7 8 7 8 9 9 8 9 9 8 9 9 9 9 10 11 11 11 11 11 11 12 12 12 12 12 12 12 12 12 12 12 12 11 11 11 11 11 11 11 11 11 12 12 11
3 3 3 2 5 4 5 7 8 7 7 7 8 8 8 9 8 9 7 8 8 8 9 9 10 10 11 11 12 12 12 12 12 12 12 12 12 12 12 12 12 12 12 12 11 11 11 11 11 11 11 11 11 11
1 4 3 4 5 4 6 7 7 8 6 8 8 8 8 7 8 7 6 7 7 8 8 8 10 11 12 12 12 12 12 12 12 12 12 12 12 12 12 12 12 12 12 12 12 12 12 11 11 11 11 11 11 11
3 3 4 5 5 6 7 7 7 6 7 9 7 7 7 8 8 8 8 7 7 7 8 8 9 10 12 13 13 13 12 12 12 12 12 12 12 12 12 12 11 11 11 11 11 11 11 11 11 10 10 10 10 10
4 4 4 6 6 7 6 6 6 7 8 8 7 7 7 7 7 9 8 8 8 8 8 9 11 12 12 13 13 13 12 12 12 12 12 12 12 12 12 12 11 11 11 11 11 11 10 10 10 10 9 9 8 8
4 5 5 6 7 6 7 6 8 8 8 7 6 6 7 8 9 8 8 9 9 9 10 11 11 11 12 12 12 13 12 12 12 12 12 11 11 11 11 11 11 11 11 11 10 10 10 10 9 9 8 8 7 7
5 6 6 6 6 7 8 8 8 8 8 8 7 7 7 8 8 8 9 10 10 10 11 12 12 12 12 12 12 12 12 12 12 12 11 11 11 10 10 10 10 10 10 10 10 9 9 9 8 8 7 6 6 6
6 6 6 6 6 8 8 8 7 7 7 7 7 7 7 7 8 9 10 10 10 11 11 11 11 11 11 12 12 12 12 12 11 11 11 10 10 10 9 9 9 9 9 9 8 8 8 7 7 6 6 6 6 6
6 6 6 5 6 7 7 7 7 6 6 6 7 7 7 7 9 10 10 10 11 11 11 11 11 11 10 11 11 11 11 11 11 10 10 10 9 9 9 9 8 8 8 7 7 7 6 6 6 6 6 6 6 6
5 5 5 6 5 5 6 6 6 6 6 6 7 8 9 10 11 11 11 11 11 11 12 12 11 10 10 10 10 10 10 10 10 9 9 9 9 8 8 8 8 7 7 7 7 6 6 6 6 6 6 6 6 5

GFSWCAN_850_temp_165.txt.gz
Temp
9 9 9 8 8 8 7 7 6 6 5 6 6 6 5 5 4 4 4 3 3 4 5 6 7 8 8 8 11 10 12 10 12 13 14 15 14 16 15 17 17 17 17 17 17 16 17 16 17 18 17 16 15 15
9 9 9 8 8 7 7 6 6 5 5 5 5 5 4 4 4 3 3 2 2 2 5 7 7 7 7 7 8 8 9 9 11 12 11 11 13 14 13 15 14 15 16 17 17 18 15 15 15 16 15 15 15 15
9 9 9 8 8 7 5 5 6 5 5 4 4 4 3 3 3 2 2 2 2 3 4 6 8 8 8 8 7 8 8 9 9 9 12 12 12 12 14 14 14 15 12 14 14 17 16 15 15 15 14 15 15 15
9 9 9 8 7 5 5 5 5 5 5 4 4 3 3 2 2 2 2 2 2 3 3 7 8 8 8 9 9 8 8 9 9 9 11 13 13 12 14 14 14 15 13 15 14 15 15 16 15 15 15 14 14 14
8 8 8 6 6 5 4 4 4 4 4 4 4 3 3 2 2 2 3 4 3 3 4 6 7 9 9 9 9 9 8 7 7 9 11 12 12 12 14 13 14 15 14 14 14 15 14 14 14 14 14 14 15 14
8 7 6 5 5 4 4 4 4 4 4 4 4 3 3 2 2 3 4 5 5 4 3 6 7 10 9 9 9 9 7 6 6 9 11 12 12 12 13 13 14 14 14 14 14 14 14 13 13 13 13 14 15 14
6 6 5 5 4 4 4 4 4 4 4 4 4 3 3 3 3 4 4 4 4 4 4 5 8 8 9 10 10 9 8 7 7 8 9 11 13 11 13 13 14 14 13 13 13 12 12 12 13 14 13 14 14 14
5 4 4 4 4 4 4 4 4 4 4 4 4 4 4 4 5 5 5 5 5 4 4 6 9 8 9 10 10 10 9 8 8 10 10 12 11 11 12 14 14 13 12 12 12 12 12 12 13 13 14 13 13 14
4 4 4 4 5 5 4 4 4 4 4 4 4 4 5 6 6 5 5 5 5 4 5 6 8 9 9 9 9 9 9 11 9 11 11 11 13 12 14 13 13 12 12 12 11 11 11 12 13 13 13 13 13 14
4 4 4 5 5 4 4 4 4 4 3 4 4 5 5 5 5 5 5 5 4 4 4 5 6 6 7 8 9 9 8 10 11 12 9 9 12 12 11 10 10 11 11 11 10 12 12 12 12 13 13 13 13 13
4 4 4 4 4 4 4 4 4 3 3 4 4 4 5 5 5 5 5 5 5 6 5 6 5 7 8 9 8 8 10 10 10 10 10 11 10 11 9 9 10 10 10 10 10 10 11 11 11 12 12 13 14 14
4 4 4 4 4 4 4 4 3 3 3 4 4 5 5 5 5 6 7 7 7 8 8 7 9 7 8 8 7 8 9 9 10 9 9 10 10 9 8 9 9 9 10 11 11 11 11 11 11 11 12 13 14 14
4 4 4 4 4 4 4 3 3 3 4 4 4 4 4 5 5 7 8 8 8 8 9 9 9 9 8 7 8 8 9 10 9 9 9 9 9 8 8 8 9 9 10 10 11 11 11 12 12 12 13 14 13 14
4 4 4 4 4 4 4 3 3 4 4 4 4 4 7 7 7 9 10 9 10 10 10 8 8 9 8 8 9 9 9 9 7 6 7 8 8 8 8 9 9 9 10 11 12 12 11 11 12 13 13 13 13 14
4 4 4 4 4 3 3 3 3 4 5 4 4 5 7 7 7 8 8 9 10 10 8 9 8 8 8 8 9 9 9 7 7 8 8 8 9 9 9 9 9 10 10 11 11 12 12 11 11 11 12 13 13 13
3 3 3 3 3 3 3 3 3 3 4 3 3 4 6 6 9 8 9 9 10 10 8 8 9 9 8 8 8 8 8 8 8 9 10 9 9 10 10 10 10 10 10 11 12 11 12 12 11 12 12 12 13 13
3 3 3 3 3 3 3 3 3 3 3 2 4 3 4 5 7 8 8 9 10 10 11 9 10 9 8 8 8 9 9 9 9 10 9 9 9 10 10 11 10 10 11 11 11 11 11 12 12 12 12 12 12 13
3 2 3 3 3 3 3 3 3 3 3 4 5 6 5 6 7 8 9 10 9 10 9 10 10 9 9 10 11 10 10 10 10 10 10 11 10 10 10 10 11 11 11 10 10 11 11 12 12 12 12 12 11 11
3 3 2 3 3 3 3 3 4 4 5 5 5 6 6 7 9 9 10 10 10 9 9 9 10 10 11 10 11 11 12 11 10 11 12 12 11 11 11 11 11 11 11 10 10 11 11 11 12 12 12 12 12 12
3 3 3 3 3 3 4 5 4 5 6 6 6 6 6 8 9 9 9 9 9 9 9 11 12 11 11 12 11 10 10 10 10 10 11 11 10 11 11 11 11 11 11 11 11 11 11 12 12 12 12 13 13 13
3 3 3 3 3 3 4 5 5 5 5 5 6 7 8 8 8 8 9 10 8 10 11 11 11 11 12 11 11 10 10 11 10 10 10 10 10 10 11 11 11 11 11 11 11 11 11 11 11 12 12 13 13 14
2 3 3 3 3 3 3 4 4 5 5 6 6 7 7 8 8 8 8 8 9 10 9 10 11 11 11 11 11 11 11 11 11 11 11 10 11 11 11 11 11 10 10 10 10 11 11 10 11 11 11 11 12 12
2 3 3 3 3 3 4 4 4 5 7 8 7 8 8 8 9 9 8 9 9 9 9 10 10 10 11 11 10 11 11 11 11 11 11 11 11 11 11 11 11 10 10 11 10 10 10 11 11 11 11 10 11 11
3 3 3 4 4 4 4 5 5 6 7 8 9 9 8 8 9 9 9 9 8 8 9 9 10 10 10 10 11 11 11 12 12 12 12 12 12 12 11 11 11 11 10 10 11 11 11 11 11 11 11 11 10 10
3 3 3 2 4 5 6 7 8 8 8 9 8 8 7 8 8 8 7 7 7 7 8 8 9 10 11 11 11 12 12 12 12 12 12 12 12 11 11 11 12 12 11 11 11 11 11 11 11 11 10 10 10 10
2 3 3 4 5 6 7 7 7 8 8 8 8 9 8 7 8 6 6 7 7 7 8 8 8 10 10 12 12 12 12 12 12 12 12 12 12 11 11 11 11 11 11 11 11 11 10 10 10 10 10 9 9 10
3 4 4 4 5 5 7 7 7 7 8 8 9 8 8 9 8 7 8 7 6 7 8 8 8 10 11 12 12 12 12 12 12 12 12 12 12 11 11 11 11 11 11 11 11 10 10 10 10 10 9 9 9 9
4 4 5 5 5 5 7 8 8 8 9 7 7 8 8 9 9 8 7 7 7 7 7 8 9 10 11 12 12 12 12 12 12 12 11 11 11 11 11 11 11 10 10 10 10 10 10 9 9 9 9 8 8 7
3 4 4 6 6 6 6 7 8 8 8 7 8 8 9 8 9 8 7 8 8 8 9 10 11 11 12 12 12 12 12 12 12 12 11 11 11 11 10 10 10 10 10 10 9 9 9 8 8 8 7 7 6 6
4 4 5 6 7 8 8 8 8 8 8 7 7 7 7 8 8 7 8 9 9 9 10 10 11 11 11 12 12 12 12 12 12 11 11 10 10 10 9 9 9 9 9 9 9 8 8 7 7 6 6 6 6 6
4 5 5 5 7 7 8 8 8 8 7 7 7 6 6 7 8 9 10 10 9 10 11 11 11 11 11 11 11 12 11 11 11 11 10 10 9 9 9 9 8 8 8 8 8 7 7 6 6 6 6 6 6 6
5 5 6 7 7 7 7 7 7 6 6 5 6 6 6 7 9 10 10 10 10 10 11 11 11 11 11 11 11 11 11 11 10 10 10 9 9 8 8 8 8 8 7 7 7 6 6 6 6 6 6 5 5 5
4 4 5 5 5 6 6 6 6 6 6 6 7 7 7 9 11 11 11 10 10 11 11 11 11 10 10 10 10 10 10 10 10 9 9 8 8 8 8 7 7 7 7 6 6 6 6 6 6 6 5 5 5 5

GFSWCAN_850_temp_168.txt.gz
Temp
9 9 9 9 9 8 8 8 7 6 6 7 7 7 6 6 5 5 4 4 4 8 10 9 9 11 12 12 15 15 15 15 17 17 18 19 18 19 19 19 20 20 20 20 21 20 20 22 21 21 20 20 19 19
9 9 9 9 9 8 8 7 6 6 6 6 6 5 5 4 4 4 5 3 3 4 8 7 7 8 9 10 11 13 14 14 15 17 17 17 17 18 18 18 20 18 20 20 21 21 20 19 19 18 18 19 19 18
9 9 9 9 8 8 7 6 5 6 6 6 5 5 4 3 3 2 3 3 4 5 8 8 10 8 8 7 9 11 13 13 13 12 15 17 16 18 17 18 18 18 18 17 19 20 20 20 18 18 17 18 17 17
9 8 9 9 8 7 6 5 5 5 5 5 4 4 4 3 2 2 2 3 3 5 7 12 9 9 9 9 8 9 10 10 11 12 14 16 17 17 17 18 17 18 16 17 18 19 18 18 18 18 17 17 17 17
8 8 8 8 7 6 5 5 5 5 5 4 4 4 4 3 2 2 3 3 3 5 8 10 9 10 9 8 9 9 9 10 11 12 13 14 15 15 17 17 17 17 17 17 17 18 18 17 17 16 16 16 16 16
8 8 7 6 6 5 5 4 5 5 5 4 4 4 3 3 3 3 5 4 5 4 3 10 11 10 10 9 9 9 10 10 10 10 12 13 14 15 15 16 17 17 16 16 17 16 16 16 16 16 16 15 16 16
7 6 6 5 5 4 4 5 5 5 4 4 4 4 4 4 3 4 5 4 5 4 4 9 13 12 10 9 9 9 9 10 10 12 13 14 15 13 14 14 16 16 16 16 15 15 15 15 15 15 15 15 15 15
5 5 5 4 4 5 5 5 4 4 4 4 4 4 4 4 5 5 5 5 5 4 4 8 13 13 11 13 12 11 10 9 11 12 14 14 14 13 14 16 16 16 15 15 15 14 14 14 15 14 15 15 15 16
5 4 4 4 5 5 5 5 4 4 4 4 4 5 5 5 5 5 5 5 5 4 6 9 12 13 11 12 12 12 12 14 14 13 14 14 14 13 16 16 15 15 14 14 14 14 14 14 14 15 15 15 16 16
4 4 4 5 5 5 5 4 4 4 4 4 4 5 7 5 6 5 5 5 4 4 5 9 9 8 10 12 11 11 12 13 13 14 13 14 15 15 14 11 10 11 11 11 12 13 14 14 15 15 15 16 16 16
4 4 5 5 5 5 4 4 4 4 4 4 5 6 5 6 6 5 6 6 7 7 8 10 11 12 11 11 11 10 12 14 13 13 12 13 14 10 10 9 8 9 9 10 11 12 13 13 13 14 15 15 15 15
4 5 5 5 5 4 4 4 4 3 3 4 4 5 5 6 6 7 8 9 9 10 10 9 11 11 10 8 7 8 10 11 10 9 9 10 10 10 8 8 8 8 9 9 10 10 11 13 13 13 13 13 14 14
4 4 4 5 4 4 4 4 4 4 4 4 4 5 6 8 7 8 10 11 10 9 11 11 12 10 9 7 7 9 9 10 9 9 9 9 9 8 8 8 9 9 10 10 11 12 12 13 12 12 12 13 13 13
4 4 4 4 4 4 4 4 4 4 3 4 6 6 9 9 10 12 11 11 11 12 12 11 11 10 8 8 9 8 9 9 8 7 8 9 9 8 9 9 9 10 10 10 12 12 12 12 12 12 12 13 13 13
4 4 4 4 4 4 4 4 4 4 3 5 7 7 11 11 11 11 11 11 12 11 11 12 11 10 9 9 9 9 9 8 7 8 9 9 9 8 9 9 9 10 10 11 11 11 12 12 12 12 12 13 13 13
3 4 4 3 3 4 4 4 3 3 3 4 6 9 10 11 12 12 12 12 12 11 12 11 12 10 9 8 9 9 9 8 9 10 11 10 9 9 9 10 10 10 10 11 11 11 11 11 11 12 12 12 12 13
3 3 3 3 3 3 3 3 3 3 3 3 7 8 8 9 10 11 11 11 11 11 13 12 10 10 9 10 11 10 10 12 12 12 11 10 10 10 10 10 10 11 10 11 11 11 11 11 12 12 13 12 12 12
2 3 3 3 3 2 3 3 3 4 4 6 8 10 9 9 10 11 11 11 11 12 12 12 11 10 10 12 12 12 12 13 12 12 12 11 11 10 10 11 11 10 10 11 11 11 12 12 12 11 12 12 12 11
2 3 3 3 3 3 3 3 4 7 8 9 9 9 9 9 10 10 10 10 10 10 11 11 11 11 12 14 14 14 13 12 11 12 11 11 10 10 10 10 10 10 11 11 11 11 11 11 12 12 12 12 12 12
3 3 3 3 3 3 4 5 4 6 8 9 8 9 9 10 10 11 11 11 11 11 12 13 14 14 14 14 13 12 11 10 10 11 11 10 10 10 10 10 10 10 10 11 10 11 11 11 12 12 12 11 11 11
3 3 3 3 3 3 4 6 6 7 8 9 9 8 9 8 8 10 12 11 11 12 13 13 13 13 13 12 11 11 11 11 10 9 10 10 10 10 10 10 10 10 10 10 11 10 10 10 11 11 11 11 11 11
2 3 3 3 3 3 4 5 6 7 7 9 9 10 9 9 9 11 11 11 13 13 12 12 12 11 11 10 10 10 11 11 11 11 11 10 10 10 10 10 10 10 10 10 10 10 10 10 10 10 11 11 11 11
2 3 3 3 3 4 5 5 6 8 9 10 10 9 10 8 9 9 10 10 10 8 9 9 9 9 9 10 11 11 11 12 12 11 11 11 11 11 11 10 10 10 10 10 10 10 10 10 10 10 10 10 10 10
3 3 4 4 5 6 6 7 7 9 10 11 11 9 9 9 9 10 11 9 7 8 8 9 9 10 10 11 11 11 11 12 12 12 12 13 13 12 12 12 11 11 10 10 10 10 9 10 9 9 9 10 9 9
2 4 4 3 6 7 9 10 10 11 11 11 10 9 7 8 8 8 8 8 8 7 7 9 8 9 10 10 11 11 12 12 12 12 12 13 13 13 13 12 11 12 12 12 11 11 10 10 10 9 9 9 9 8
3 4 3 7 8 8 10 10 10 9 10 8 9 9 8 7 8 8 9 8 8 7 7 8 8 10 10 11 11 11 12 12 12 12 11 12 12 13 13 13 12 11 12 11 11 11 11 10 10 10 10 9 9 9
4 7 6 6 7 8 9 10 10 10 9 8 10 10 9 9 9 8 8 7 7 6 7 7 8 9 9 10 11 11 11 11 12 11 11 11 11 11 11 11 11 10 11 11 11 10 10 10 10 9 9 9 9 9
6 6 8 8 8 9 10 10 10 11 10 9 10 9 10 10 10 9 8 7 7 7 7 8 9 10 11 12 11 11 11 11 11 12 12 12 11 11 10 10 10 10 10 10 10 10 10 9 9 9 9 8 8 8
6 7 7 8 9 9 9 10 11 9 8 9 10 11 11 10 9 8 7 7 7 7 8 9 9 10 11 11 12 11 12 13 13 13 13 12 12 11 10 10 10 9 9 9 9 9 9 8 8 8 8 8 7 7
7 7 8 9 9 10 10 9 9 8 8 8 8 9 9 8 7 7 7 8 8 8 9 10 10 10 11 12 12 11 11 12 13 13 12 11 11 10 10 9 9 9 9 8 8 7 8 8 8 8 8 8 8 8
6 6 7 8 9 10 9 8 8 7 7 8 8 8 8 7 8 9 9 9 9 9 10 11 11 11 12 12 13 12 11 11 11 11 11 10 10 9 9 9 9 9 9 9 9 9 9 8 8 8 8 7 7 7
7 7 8 9 9 9 7 8 8 8 8 8 8 7 6 7 9 9 10 10 9 10 11 11 12 11 11 10 11 11 11 10 10 10 10 9 9 9 9 9 9 9 9 8 8 8 8 8 8 8 8 7 7 7
7 7 8 8 9 9 7 7 8 8 8 7 7 6 7 10 11 11 10 10 10 11 11 10 10 10 10 10 10 10 10 10 9 9 9 8 8 8 9 8 8 8 8 8 8 8 8 7 7 7 7 7 6 6